Bodensee (Kressbronn): 6,7°C  -  Teich der Wetterzentrale Bad Schussenried: 5,6°C |  Schneehöhe Kreuzthal-Steinberg (930 m ü. NN): 8 cm   
01.04.2020Höhe
ü. NN
ZeitTemperatur (°C)Nieder-
schlag
Luft-
feuchte
Luft-
druck
Wind
StationaktuellMinimumMaximumaktuellMaximum
Aldingen654 m06:26-4,8-4,8 (07:35)-0,3 (16:02)0,0 l/m²80%1023,40,0 km/h (0 Bft) W29,6 km/h (5 Bft) W (14:48)
Allmendingen541 m06:25-6,3-6,3 (07:35)-2,1 (15:10)0,0 l/m²88%1023,34,8 km/h (1 Bft) NO35,4 km/h (5 Bft) O (15:35)
Altshausen574 m06:25-3,7-3,9 (05:14)-1,1 (00:16)0,0 l/m²67%1020,88,0 km/h (2 Bft) NO11,3 km/h (2 Bft) N (06:10)
Amstetten-Reutti663 m06:25-4,6-4,7 (06:15)-1,5 (16:55)0,0 l/m²86%1022,94,8 km/h (1 Bft) W-NW48,3 km/h (6 Bft) W (15:55)
Amtzell-Grenis677 m06:25-3,3-4,1 (06:05)-1,4 (00:00)0,0 l/m²62%1022,86,4 km/h (2 Bft) O-NO6,4 km/h (2 Bft) W-SW (00:00)
Aulendorf570 m06:25-3,0-3,0 (06:19)-0,5 (00:00)0,0 l/m²72%1021,76,4 km/h (2 Bft) N-NO14,5 km/h (3 Bft) O-NO (05:13)
Bad Krozingen233 m06:25-2,2-2,2 (06:25)3,7 (16:05)0,0 l/m²78%1023,35,2 km/h (1 Bft) S-SW38,1 km/h (5 Bft) N (17:05)
Bad Saulgau595 m06:25-5,1-5,1 (07:00)-1,9 (15:00)0,0 l/m²87%1021,50,0 km/h (0 Bft) S-SO25,7 km/h (4 Bft) S (11:35)
Bad Saulgau, Mannsgrab588 m06:28-4,8-6,1 (05:34)-1,7 (00:17)0,0 l/m²86%1024,10,0 km/h (0 Bft) N0,0 km/h (0 Bft) N (00:00)
Bad Saulgau-Lampertsweiler627 m06:25-4,8-4,8 (06:15)0,2 (00:00)0,0 l/m²82%1024,68,0 km/h (2 Bft) N-NW22,5 km/h (4 Bft) N-NW (01:15)
Bad Schussenried572 m06:25-4,0-4,1 (06:25)-1,1 (00:00)0,0 l/m²87%1021,10,0 km/h (0 Bft) NO9,7 km/h (2 Bft) NO (03:15)
Bergatreute615 m01:45-0,7-0,7 (00:45)0,0 (00:00)0,0 l/m²77%1023,512,9 km/h (3 Bft) NO16,1 km/h (3 Bft) O-NO (01:40)
Biberach (Riss), Boehringer533 m06:30-4,3-4,4 (06:30)-1,1 (00:30)0,0 l/m²89%1021,94,3 km/h (1 Bft) N11,9 km/h (3 Bft) N (03:00)
Biberach (Riss), Realschule553 m06:25-3,9-3,9 (06:05)-0,3 (00:00)0,0 l/m²87%1023,612,9 km/h (3 Bft) N12,9 km/h (3 Bft) N (06:05)
Burgrieden523 m06:25-4,0-4,0 (06:20)-0,4 (00:00)0,0 l/m²82%1022,70,0 km/h (0 Bft) NO4,8 km/h (1 Bft) O-NO (02:50)
Burgrieden-Hochstetten510 m06:25-4,6-4,6 (07:00)-0,9 (15:40)0,0 l/m²89%1023,23,2 km/h (1 Bft) N-NO25,7 km/h (4 Bft) NO (12:55)
Ebersbach579 m06:25-3,8-3,8 (05:55)-0,1 (00:00)0,0 l/m²86%1023,09,7 km/h (2 Bft) N-NO16,1 km/h (3 Bft) NO (01:25)
Ebersbach-Boos605 m06:25-4,2-4,2 (05:55)-0,1 (00:00)0,0 l/m²88%1022,816,1 km/h (3 Bft) NO22,5 km/h (4 Bft) O (01:00)
Ebersbach-Menzenweiler661 m06:25-3,9-3,9 (06:20)-0,6 (00:00)0,0 l/m²88%1022,819,3 km/h (3 Bft) N-NO24,1 km/h (4 Bft) O-NO (01:05)
Ehingen535 m01:10-2,5-2,5 (01:10)-1,3 (00:05)0,0 l/m²70%1025,40,0 km/h (0 Bft) N-NO5,0 km/h (1 Bft) N-NO (00:15)
Erlenmoos645 m06:25-3,4-3,4 (06:25)-0,9 (00:00)0,0 l/m²86%1022,70,0 km/h (0 Bft) NO12,9 km/h (3 Bft) O-NO (01:35)
Ertingen569 m06:25-3,4-3,4 (06:00)-0,6 (00:00)0,0 l/m²84%1022,74,8 km/h (1 Bft) N16,1 km/h (3 Bft) N-NO (04:10)
Friedrichshafen405 m06:25-1,7-1,7 (07:00)0,9 (13:30)0,0 l/m²78%1022,512,9 km/h (3 Bft) NO27,4 km/h (4 Bft) NO (15:10)
Günzburg443 m06:25-4,7-4,8 (06:05)-1,1 (00:00)0,0 l/m²88%1020,80,0 km/h (0 Bft) NO0,0 km/h (0 Bft) NO (00:00)
Hochdorf-Appendorf537 m06:25-4,8-5,8 (06:05)-1,7 (00:15)0,0 l/m²67%1022,68,0 km/h (2 Bft) N14,5 km/h (3 Bft) N-NW (03:20)
Höchsten802 m06:25-4,0-4,0 (06:25)-1,4 (00:00)0,0 l/m²81%1020,416,1 km/h (3 Bft) N25,7 km/h (4 Bft) NO (02:45)
Horgenzell618 m06:25-1,9-1,9 (03:45)-0,6 (00:05)0,0 l/m²76%1020,04,8 km/h (1 Bft) N-NO19,3 km/h (3 Bft) N-NO (00:50)
Hoßkirch632 m06:25-6,6-6,6 (06:20)-1,0 (00:15)0,0 l/m²87%1021,64,8 km/h (1 Bft) O14,5 km/h (3 Bft) O-NO (00:20)
Isny, Am Dreifingerbach695 m06:25-6,2-6,2 (06:25)0,1 (01:00)0,0 l/m²83%1021,33,2 km/h (1 Bft) W14,5 km/h (3 Bft) O-NO (01:05)
Isny, Weidachweg706 m06:25-4,1-4,3 (06:20)0,3 (00:25)0,0 l/m²76%1023,70,0 km/h (0 Bft) W12,9 km/h (3 Bft) W (00:10)
Kappel-Grafenhausen163 m06:20-1,6-1,6 (07:00)3,3 (14:55)0,0 l/m²77%1021,24,8 km/h (1 Bft) N30,6 km/h (5 Bft) N-NO (16:55)
Kißlegg-Staibshof709 m06:25-3,3-3,3 (06:20)-0,9 (00:00)0,0 l/m²82%1022,48,0 km/h (2 Bft) NO14,5 km/h (3 Bft) O (01:50)
Kressbronn398 m06:28-2,2-2,2 (06:22)1,4 (00:00)0,0 l/m²76%1021,20,0 km/h (0 Bft) NO22,5 km/h (4 Bft) NO (00:54)
Kreuzthal-Steinberg-Alpe930 m06:20-4,5-4,8 (04:00)-2,5 (00:00)0,0 l/m²88%1022,02,2 km/h (1 Bft) W-SW22,0 km/h (4 Bft) W-NW (00:10)
Kreuzthal-Steinberggipfel1040 m06:20-3,6-4,0 (02:20)-3,1 (00:10)-74%1022,013,3 km/h (3 Bft) O37,1 km/h (5 Bft) O-SO (00:10)
Kristberg im Montafon (AT)1425 m06:25-6,4-6,6 (04:51)-5,3 (00:40)0,0 l/m²60%1026,21,8 km/h (1 Bft) N-NO10,1 km/h (2 Bft) NO (01:47)
Laupheim500 m06:25-3,9-3,9 (06:25)0,0 (00:00)0,0 l/m²82%1022,20,0 km/h (0 Bft) NO9,7 km/h (2 Bft) O-SO (00:20)
Leutkirch-Heggelbach670 m06:25-4,7-4,7 (06:20)-2,6 (00:30)0,0 l/m²87%1021,64,8 km/h (1 Bft) N-NO8,0 km/h (2 Bft) N-NO (03:30)
Lindau-Insel420 m06:25-1,3-1,3 (07:25)1,8 (14:55)0,0 l/m²73%1021,60,0 km/h (0 Bft) O-NO29,0 km/h (5 Bft) NO (17:05)
Lindau-Stadt412 m06:25-2,1-2,1 (07:25)1,2 (14:55)0,0 l/m²76%1021,73,2 km/h (1 Bft) NO33,8 km/h (5 Bft) N-NO (15:40)
Maierhöfen im Allgäu733 m06:25-3,7-3,7 (06:10)-1,2 (01:35)0,0 l/m²76%1021,84,8 km/h (1 Bft) NW25,7 km/h (4 Bft) O-SO (02:05)
Maselheim543 m06:25-5,0-5,0 (07:25)-2,3 (13:20)0,0 l/m²86%1023,14,8 km/h (1 Bft) N-NW24,1 km/h (4 Bft) O-NO (15:20)
Maselheim-Sulmingen548 m06:25-5,1-5,1 (07:05)-2,2 (15:15)0,0 l/m²89%1024,33,2 km/h (1 Bft) NW20,9 km/h (4 Bft) N-NO (12:15)
Mietingen-Baltringen528 m06:25-4,8-4,8 (06:25)-1,3 (00:45)0,0 l/m²86%1024,60,0 km/h (0 Bft) O-NO4,8 km/h (1 Bft) N-NO (01:20)
Mindelheim-Apfeltrach620 m06:26-5,7-5,7 (06:17)-2,7 (00:00)0,0 l/m²87%1024,00,0 km/h (0 Bft) NO0,0 km/h (0 Bft) O-NO (00:00)
Mittelbiberach577 m06:26-4,3-4,4 (06:08)-1,0 (00:16)0,0 l/m²84%1023,96,4 km/h (2 Bft) N12,8 km/h (3 Bft) NO (05:56)
Neresheim552 m06:01-6,8-6,8 (06:01)-2,0 (00:00)0,0 l/m²89%1021,70,0 km/h (0 Bft) O4,0 km/h (1 Bft) NO (01:00)
Neukirch570 m06:25-3,1-3,1 (07:05)-0,9 (14:35)0,0 l/m²81%1022,09,7 km/h (2 Bft) N-NO37,0 km/h (5 Bft) N-NO (11:55)
Ochsenhausen, Birkenstraße613 m06:25-5,3-5,3 (07:10)-2,2 (12:50)0,0 l/m²82%1023,11,6 km/h (1 Bft) NO3,2 km/h (1 Bft) S-SW (07:05)
Ochsenhausen, Unt. Wiesen575 m06:25-5,6-5,7 (06:15)-2,4 (00:00)0,0 l/m²89%1024,50,0 km/h (0 Bft) NO4,8 km/h (1 Bft) NO (00:00)
Opfenbach-Göritz561 m06:26-4,2-5,2 (05:22)-2,8 (00:00)0,0 l/m²74%1020,00,0 km/h (0 Bft) N-NO6,5 km/h (2 Bft) O-NO (00:18)
Ostrach619 m06:25-3,8-3,8 (04:15)-0,6 (00:00)0,0 l/m²89%1021,16,4 km/h (2 Bft) NW8,0 km/h (2 Bft) N-NW (04:40)
Ravensburg, Goethestraße428 m06:25-1,8-1,8 (06:20)1,3 (00:00)0,0 l/m²80%1021,814,5 km/h (3 Bft) NO16,1 km/h (3 Bft) O-NO (06:15)
Ravensburg-Wernsreute511 m06:25-3,2-3,2 (06:25)0,0 (15:50)0,0 l/m²82%1024,417,7 km/h (3 Bft) N35,4 km/h (5 Bft) N-NO (11:45)
Reichenbach an der Fils343 m06:25-2,1-2,1 (06:20)1,0 (00:00)0,0 l/m²77%1025,50,0 km/h (0 Bft) SO12,9 km/h (3 Bft) O-SO (05:10)
Riedlingen530 m06:25-3,3-3,3 (06:20)-1,0 (00:00)0,0 l/m²82%1023,00,0 km/h (0 Bft) O-NO0,0 km/h (0 Bft) N (00:00)
Rißtissen489 m06:25-3,2-3,2 (06:25)-0,2 (00:00)0,0 l/m²85%1020,60,0 km/h (0 Bft) O-NO8,0 km/h (2 Bft) O-NO (03:30)
Rottweil-Hausen681 m06:28-4,3-4,4 (05:57)-1,9 (00:00)0,0 l/m²83%1023,83,2 km/h (1 Bft) N-NW6,5 km/h (2 Bft) N (02:14)
Schemmerhofen520 m06:252,72,7 (00:00)2,7 (00:00)0,0 l/m²55%1021,80,0 km/h (0 Bft) NO0,0 km/h (0 Bft) NO (00:00)
Silbertal im Montafon (AT)884 m06:26-4,4-4,4 (06:14)-1,6 (00:01)0,0 l/m²85%1026,00,0 km/h (0 Bft) O-NO0,0 km/h (0 Bft) O-NO (00:00)
Tettnang466 m06:29-1,6-1,6 (06:26)1,0 (00:00)0,0 l/m²72%1021,71,4 km/h (1 Bft) O-NO16,2 km/h (3 Bft) O-SO (01:07)
Tuttlingen648 m06:21-4,1-4,3 (05:41)-2,1 (00:01)0,0 l/m²76%1023,60,0 km/h (0 Bft) W5,2 km/h (1 Bft) W-SW (03:26)
Tuttlingen, Möhringer-Vorstadt711 m06:25-4,3-4,5 (07:10)-2,4 (16:05)0,0 l/m²82%1022,60,0 km/h (0 Bft) O-NO25,7 km/h (4 Bft) N-NW (12:35)
Ummendorf547 m06:25-4,3-4,5 (06:10)-0,7 (00:10)0,0 l/m²69%1023,90,0 km/h (0 Bft) O-NO16,1 km/h (3 Bft) O (01:05)
Ummendorf-Fischbach558 m06:25-5,2-5,4 (06:15)-1,9 (01:25)0,0 l/m²70%1023,70,0 km/h (0 Bft) O4,8 km/h (1 Bft) O (04:20)
Waldburg707 m06:25-3,2-3,2 (06:15)-0,8 (00:00)0,0 l/m²80%1021,49,7 km/h (2 Bft) N19,3 km/h (3 Bft) N (02:35)
Waltenhofen im Allgäu720 m06:25-7,3-7,3 (06:15)-2,2 (01:05)0,0 l/m²90%1022,50,0 km/h (0 Bft) W17,7 km/h (3 Bft) W (11:50)
Wangen, Südring548 m06:25-4,0-4,0 (06:18)-0,3 (00:00)0,0 l/m²84%1021,63,2 km/h (1 Bft) O-NO13,0 km/h (3 Bft) NO (01:25)
Warthausen-Birkenhard581 m06:24-4,3-4,3 (05:35)-1,2 (00:00)0,0 l/m²86%1023,411,9 km/h (3 Bft) N13,7 km/h (3 Bft) NO (06:13)
Winterlingen785 m06:15-5,6-5,6 (06:15)-2,8 (01:00)0,0 l/m²84%1022,51,1 km/h (1 Bft) N3,6 km/h (1 Bft) NO (00:55)

Werbung
niederschlagsdatenbank | info | login - erfassung

Sollten Sie Interesse haben, an der Niederschlagsdatenbank teilzunehmen, finden Sie > hier < weitere Informationen.

Niederschlagsdaten der Station Ostrach - Heiligenberger Straße

Armin Günter

Niederschlagsstation aufgenommen ins Stationsnetz der Wetterwarte Süd am 12.09.2010
Monat: .
Anmerkung:0,0 = nicht messbarer Niederschlag
 -  = kein Niederschlag

Stationsdaten

Höhe

624 m

Lage

Auf Google Maps ansehen

Beschreibung

Ostrach liegt zwischen Donau und Bodensee, Sigmaringen und Ravensburg, Bad Saulgau und Pfullendorf am gleichnamigen Bach, der hier durch eine Engstelle zwischen zwei Moränenrücken des Rheingletschers aus der letzten Eiszeit hindurch fließt und das Burgweiler-Pfrunger Ried zur Donau hin entwässert. Die Landschaft ist hügelig und waldreich. Durch Kiesabbau in zwei Kieswerken sind Baggerseen nördlich und südlich des Ortsteils Jettkofen entstanden. Die digitale Regen- und Temperaturstation liegt 47 Grad Nördlicher Breite,9 Grad und 22 min östlicher Länge ,621 über NN.
< Juli 2013September 2013 >

August 2013

TagNiederschlagBemerkung
01.-
02.-
03.-
04.20,7
Gewitter
05.-
06.-
07.4,6
Regen
08.-
09.7,2
Regen
10.8,7
Regen
11.-
12.-
13.-
14.-
15.-
16.-
17.-
18.2,2
Regen
19.7,2
Regen
20.-
21.-
22.-
23.-
24.-
25.-
26.-
27.-
28.-
29.-
30.-
31.-
Gesamt:50,6 
Die Spalten "Tag" und "Niederschlag" lassen sich durch Klicken auf den Spaltenkopf sortieren.
Die Angaben sind in l/m².

< Juli 2013September 2013 >


Monats- und Jahresniederschlag


Wetterbeobachtungen Legende:

  • Regen
  • Nieselregen
  • Schneeregen
  • Schnee
  • Graupel
  • Eiskörner
  • Hagel
  • Bodennebel
  • Gewitter
  • Nebelnässe
  • Schneegriesel

Grafische Darstellung der Niederschläge der Station Ostrach August 2013

 
wetterstationen
wetterstationen
- derzeit 83 Stationen
niederschlagsdatenbank
wetterstationen
- kartographische Darstellung
niederschlagsdatenbank
niederschlagsstationen
- derzeit 112 Stationen
niederschlagsdatenbank
niederschlagsstationen
- kartographische Darstellung
 
  treffpunkt & service
--- Anzeigen --------------------------------
zugriffe:
insgesamt: 46.623.323
aktueller monat: 512
heute: 512
momentan online: 37
 
 
monatshöchstwert: 653.625
vorheriger monat: 364.213
gestern: 13.565
tageshöchstwert: 57.073
 
wetterwarte süd
 
konradstraße 3
info@wetterwarte-sued.com
roland roth
 
88427 bad schussenried